Regional Weather Roundup
Issued by NWS

Home | Current Version | Previous Version | Text Only | Print | Product List | Glossary On
Versions: 1 2 3 4 5 6 7 8 9 10 11 12 13 14 15 16 17 18 19 20 21 22 23 24 25 26 27 28 29 30 31 32 33 34 35 36 37 38 39 40 41 42 43 44 45 46 47 48 49 50
112
ASUS43 KTOP 220459
RWRKS

WEATHER ROUNDUP FOR KANSAS
NATIONAL WEATHER SERVICE GOODLAND KS
1200 AM CDT SUN OCT 22 2017

NOTE:  "FAIR" INDICATES FEW OR NO CLOUDS BELOW 12,000 FEET WITH NO
SIGNIFICANT WEATHER AND/OR OBSTRUCTIONS TO VISIBILITY.

KSZ001>006-013>018-027>032-041>047-220600-
NORTHWEST KANSAS

CITY           SKY/WX    TMP DP  RH WIND       PRES   REMARKS
GOODLAND       CLEAR     39  19  44 NW7       30.11R
HAYS           CLOUDY    42  37  82 NW7       30.06S
HILL CITY      CLOUDY    36  33  89 W5        30.08R
RUSSELL        CLOUDY    47  41  80 N7        30.04R
$$

KSZ061>065-074>080-084>089-220600-
SOUTHWEST KANSAS

CITY           SKY/WX    TMP DP  RH WIND       PRES   REMARKS
DODGE CITY     CLOUDY    41  32  70 N5        30.10R
ELKHART          N/A     44  20  38 NW6         N/A
GARDEN CITY    CLEAR     39  24  55 N7        30.10R
GREAT BEND     CLOUDY    48  40  73 CALM      30.06R
LIBERAL        CLEAR     38  28  67 NW6       30.11R
$$

KSZ066>073-081>083-090>101-220600-
SOUTHEAST KANSAS

CITY           SKY/WX    TMP DP  RH WIND       PRES   REMARKS
CHANUTE        HVY RAIN  54  53  97 N15       29.94S FOG
COFFEYVILLE    HVY RAIN  58  56  93 N10       29.95R
HUTCHINSON     CLOUDY    55  40  56 N9        30.02R
MEDICINE LODGE   N/A     55  36  48 N5        30.04R
NEWTON         CLOUDY    53  43  68 N12       30.03R
PARSONS        HVY RAIN  56  54  93 N14G23    29.97R FOG
WICHITA INTL   CLOUDY    57  44  62 N14       30.00F
WICHITA JABRA  CLOUDY    53  47  79 N9        30.00S
WICHITA MCCONL CLOUDY    53  46  77 NE10      30.00F
WINFIELD       LGT RAIN  54  52  93 NE10      30.01S
$$

KSZ007>012-019>026-033>040-048>060-102>105-220600-
NORTHEAST KANSAS

CITY           SKY/WX    TMP DP  RH WIND       PRES   REMARKS
CONCORDIA      MOCLDY    48  43  82 W3        30.05R
EMPORIA        TSTM      51  48  89 N7        30.02R
LAWRENCE       RAIN      53  51  93 NW12      29.98R
MANHATTAN      CLOUDY    56  41  57 N6        30.01R
OLATHE IND     RAIN      53  52  96 NW13      29.97F
OLATHE EXE     LGT RAIN  53  52  96 NW14G21   29.96R
SALINA         CLOUDY    55  43  63 N7        30.04R
TOPEKA BILLARD TSTM      53  51  93 NW7       30.00R
TOPEKA FORBES  TSTM      53  51  93 N8        30.00R
$$




USA.gov is the U.S. government's official web portal to all federal, state and local government web resources and services.